Location: *
(50.6089°N, 2.2719°E)
Time: 08:10:09
(UTC+00:00)

Cosmos 2239 Rocket - Pass Details

Date: 18 October 2019
Orbit: 954 x 992 km, 82.9° (Epoch: 20 November)

Event Time Altitude Azimuth Distance (km) Brightness Sun altitude
Rises 17:20:41 0° 351° (N) 3,657 7.5 -5.1°
Reaches altitude 10° 17:23:13 10° 353° (N) 2,703 6.8 -5.5°
Maximum altitude 17:29:23 73° 78° (ENE) 1,002 4.5 -6.4°
Drops below altitude 10° 17:35:30 10° 164° (SSE) 2,676 6.7 -7.4°
Sets 17:37:59 0° 166° (SSE) 3,619 7.4 -7.8°
